Location: Amherst
(42.3800°N, 72.5240°W)
Time: 12:20:04
(UTC-04:00)

ISS - Pass Details

Date: 22 May 2021
Orbit: 417 x 422 km, 51.6° (Epoch: 14 June)

Event Time Altitude Azimuth Distance (km) Brightness Sun altitude
Rises 23:10:56 0° 306° (NW) 2,368 1.0 -23.2°
Reaches altitude 10° 23:13:19 10° 321° (NW) 1,504 0.1 -23.4°
Maximum altitude 23:16:07 23° 17° (NNE) 932 -1.5 -23.6°
Enters shadow 23:16:55 21° 40° (NE) 993 -1.6 -23.7°
